| Date | Time | Temp. (oF) | Dew Point (oF) | Rel. Hum. (%) | Press. (in.) | Wind Dir. | Wind Speed (mph) | Hourly Rainfall (in.) |
|
|---|---|---|---|---|---|---|---|---|---|
| 1 | 06/14 | 00:00 | 76 | 70 | 83 | 29.79 | S | 4 | 0.00 |
| 2 | 06/13 | 23:00 | 76 | 70 | 82 | 29.79 | S | 3 | 0.00 |
| 3 | 06/13 | 22:00 | 76 | 68 | 79 | 29.78 | S | 6 | 0.00 |
| 4 | 06/13 | 21:00 | 78 | 69 | 76 | 29.79 | S | 4 | 0.00 |
| 5 | 06/13 | 20:00 | 79 | 69 | 72 | 29.79 | S | 4 | 0.00 |
| 6 | 06/13 | 19:00 | 81 | 70 | 70 | 29.78 | WSW | 2 | 0.00 |
| 7 | 06/13 | 18:00 | 81 | 68 | 67 | 29.79 | S | 11 | 0.00 |
| 8 | 06/13 | 17:00 | 80 | 68 | 69 | 29.80 | SSE | 11 | 0.00 |
| 9 | 06/13 | 16:00 | 79 | 69 | 73 | 29.84 | S | 3 | 0.00 |
| 10 | 06/13 | 15:00 | 78 | 68 | 74 | 29.86 | S | 4 | 0.00 |
| 11 | 06/13 | 14:00 | 76 | 67 | 75 | 29.87 | WSW | 5 | 0.00 |
| 12 | 06/13 | 13:00 | 75 | 67 | 77 | 29.90 | S | 7 | 0.00 |
| 13 | 06/13 | 12:00 | 73 | 65 | 78 | 29.90 | S | 6 | 0.00 |
| 14 | 06/13 | 11:00 | 72 | 65 | 81 | 29.92 | S | 7 | 0.00 |
| 15 | 06/13 | 10:00 | 70 | 65 | 86 | 29.93 | SSE | 10 | 0.01 |
| 16 | 06/13 | 09:00 | 68 | 64 | 90 | 29.95 | SSE | 4 | 0.00 |
| 17 | 06/13 | 08:00 | 67 | 64 | 91 | 29.96 | SSE | 4 | 0.00 |
| 18 | 06/13 | 07:00 | 66 | 63 | 92 | 29.98 | S | 3 | 0.00 |
| 19 | 06/13 | 06:00 | 65 | 62 | 91 | 29.97 | ESE | 4 | 0.00 |
| 20 | 06/13 | 05:00 | 66 | 62 | 90 | 29.99 | SSE | 4 | 0.00 |
| 21 | 06/13 | 04:00 | 66 | 61 | 86 | 30.01 | SSE | 3 | 0.00 |
| 22 | 06/13 | 03:00 | 66 | 61 | 85 | 30.02 | SE | 3 | 0.00 |
| 23 | 06/13 | 02:00 | 67 | 61 | 82 | 30.04 | SSE | 4 | 0.00 |
| 24 | 06/13 | 01:00 | 67 | 59 | 78 | 30.05 | SSE | 7 | 0.00 |